Location: Unspecified
(0.0000°N, 0.0000°E)
Time: 01:35:06
(UTC+00:00)

Courier 1B - Pass Details

Date: 27 November 2019
Orbit: 963 x 1209 km, 28.3° (Epoch: 11 December)

Event Time Altitude Azimuth Distance (km) Brightness Sun altitude
Rises 20:02:56 0° 219° (SW) 3,950 11.6 -31.3°
Reaches altitude 10° 20:06:15 10° 206° (SSW) 3,030 10.6 -32.0°
Enters shadow 20:12:14 25° 153° (SSE) 2,160 9.2 -33.4°
Maximum altitude 20:12:15 25° 153° (SSE) 2,160 - -33.4°
Drops below altitude 10° 20:18:24 10° 100° (E) 3,127 - -34.8°
Sets 20:21:52 0° 88° (E) 4,103 - -35.5°
